Year,Month,Day,Hour,Minute,Value (Times are PST for temperature in C)
2021,04,27,00,00,8.00
2021,04,27,00,01,8.00
2021,04,27,00,02,7.90
2021,04,27,00,03,7.90
2021,04,27,00,04,7.90
2021,04,27,00,05,7.90
2021,04,27,00,06,7.90
2021,04,27,00,07,7.90
2021,04,27,00,08,7.90
2021,04,27,00,09,7.90
2021,04,27,00,10,7.90
2021,04,27,00,11,7.90
2021,04,27,00,12,7.90
2021,04,27,00,13,7.80
2021,04,27,00,14,7.80
2021,04,27,00,15,7.80
2021,04,27,00,16,7.80
2021,04,27,00,17,7.80
2021,04,27,00,18,7.80
2021,04,27,00,19,7.80
2021,04,27,00,20,7.80
2021,04,27,00,21,7.80
2021,04,27,00,22,7.80
2021,04,27,00,23,7.70
2021,04,27,00,24,7.70
2021,04,27,00,25,7.70
2021,04,27,00,26,7.70
2021,04,27,00,27,7.70
2021,04,27,00,28,7.70
2021,04,27,00,29,7.70
2021,04,27,00,30,7.70
2021,04,27,00,31,7.70
2021,04,27,00,32,7.70
2021,04,27,00,33,7.70
2021,04,27,00,34,7.70
2021,04,27,00,35,7.60
2021,04,27,00,36,7.60
2021,04,27,00,37,7.60
2021,04,27,00,38,7.60
2021,04,27,00,39,7.60
2021,04,27,00,40,7.60
2021,04,27,00,41,7.60
2021,04,27,00,42,7.60
2021,04,27,00,43,7.60
2021,04,27,00,44,7.60
2021,04,27,00,45,7.60
2021,04,27,00,46,7.60
2021,04,27,00,47,7.50
2021,04,27,00,48,7.50
2021,04,27,00,49,7.50
2021,04,27,00,50,7.40
2021,04,27,00,51,7.40
2021,04,27,00,52,7.40
2021,04,27,00,53,7.40
2021,04,27,00,54,7.40
2021,04,27,00,55,7.30
2021,04,27,00,56,7.30
2021,04,27,00,57,7.30
2021,04,27,00,58,7.30
2021,04,27,00,59,7.30
2021,04,27,01,00,7.20
2021,04,27,01,01,7.20
2021,04,27,01,02,7.20
2021,04,27,01,03,7.20
2021,04,27,01,04,7.20
2021,04,27,01,05,7.20
2021,04,27,01,06,7.20
2021,04,27,01,07,7.10
2021,04,27,01,08,7.10
2021,04,27,01,09,7.10
2021,04,27,01,10,7.10
2021,04,27,01,11,7.20
2021,04,27,01,12,7.20
2021,04,27,01,13,7.20
2021,04,27,01,14,7.20
2021,04,27,01,15,7.20
2021,04,27,01,16,7.20
2021,04,27,01,17,7.20
2021,04,27,01,18,7.20
2021,04,27,01,19,7.20
2021,04,27,01,20,7.20
2021,04,27,01,21,7.20
2021,04,27,01,22,7.20
2021,04,27,01,23,7.20
2021,04,27,01,24,7.20
2021,04,27,01,25,7.20
2021,04,27,01,26,7.20
2021,04,27,01,27,7.20
2021,04,27,01,28,7.20
2021,04,27,01,29,7.20
2021,04,27,01,30,7.20
2021,04,27,01,31,7.20
2021,04,27,01,32,7.20
2021,04,27,01,33,7.20
2021,04,27,01,34,7.20
2021,04,27,01,35,7.20
2021,04,27,01,36,7.20
2021,04,27,01,37,7.20
2021,04,27,01,38,7.20
2021,04,27,01,39,7.20
2021,04,27,01,40,7.20
2021,04,27,01,41,7.20
2021,04,27,01,42,7.20
2021,04,27,01,43,7.20
2021,04,27,01,44,7.20
2021,04,27,01,45,7.20
2021,04,27,01,46,7.20
2021,04,27,01,47,7.20
2021,04,27,01,48,7.20
2021,04,27,01,49,7.20
2021,04,27,01,50,7.10
2021,04,27,01,51,7.10
2021,04,27,01,52,7.10
2021,04,27,01,53,7.10
2021,04,27,01,54,7.10
2021,04,27,01,55,7.10
2021,04,27,01,56,7.10
2021,04,27,01,57,7.10
2021,04,27,01,58,7.10
2021,04,27,01,59,7.10
2021,04,27,02,00,7.10
2021,04,27,02,01,7.10
2021,04,27,02,02,7.10
2021,04,27,02,03,7.10
2021,04,27,02,04,7.10
2021,04,27,02,05,7.10
2021,04,27,02,06,7.00
2021,04,27,02,07,7.10
2021,04,27,02,08,7.10
2021,04,27,02,09,7.10
2021,04,27,02,10,7.10
2021,04,27,02,11,7.10
2021,04,27,02,12,7.10
2021,04,27,02,13,7.10
2021,04,27,02,14,7.00
2021,04,27,02,15,7.10
2021,04,27,02,16,7.00
2021,04,27,02,17,7.00
2021,04,27,02,18,7.00
2021,04,27,02,19,7.00
2021,04,27,02,20,7.00
2021,04,27,02,21,7.00
2021,04,27,02,22,7.00
2021,04,27,02,23,6.90
2021,04,27,02,24,6.90
2021,04,27,02,25,7.00
2021,04,27,02,26,6.90
2021,04,27,02,27,6.90
2021,04,27,02,28,6.90
2021,04,27,02,29,6.90
2021,04,27,02,30,6.90
2021,04,27,02,31,6.90
2021,04,27,02,32,6.90
2021,04,27,02,33,6.80
2021,04,27,02,34,6.80
2021,04,27,02,35,6.80
2021,04,27,02,36,6.80
2021,04,27,02,37,6.80
2021,04,27,02,38,6.70
2021,04,27,02,39,6.70
2021,04,27,02,40,6.70
2021,04,27,02,41,6.70
2021,04,27,02,42,6.70
2021,04,27,02,43,6.70
2021,04,27,02,44,6.70
2021,04,27,02,45,6.60
2021,04,27,02,46,6.60
2021,04,27,02,47,6.60
2021,04,27,02,48,6.60
2021,04,27,02,49,6.60
2021,04,27,02,50,6.60
2021,04,27,02,51,6.60
2021,04,27,02,52,6.60
2021,04,27,02,53,6.60
2021,04,27,02,54,6.60
2021,04,27,02,55,6.60
2021,04,27,02,56,6.60
2021,04,27,02,57,6.60
2021,04,27,02,58,6.60
2021,04,27,02,59,6.60
2021,04,27,03,00,6.60
2021,04,27,03,01,6.60
2021,04,27,03,02,6.50
2021,04,27,03,03,6.50
2021,04,27,03,04,6.50
2021,04,27,03,05,6.50
2021,04,27,03,06,6.40
2021,04,27,03,07,6.40
2021,04,27,03,08,6.40
2021,04,27,03,09,6.30
2021,04,27,03,10,6.30
2021,04,27,03,11,6.30
2021,04,27,03,12,6.30
2021,04,27,03,13,6.30
2021,04,27,03,14,6.30
2021,04,27,03,15,6.30
2021,04,27,03,16,6.30
2021,04,27,03,17,6.30
2021,04,27,03,18,6.30
2021,04,27,03,19,6.20
2021,04,27,03,20,6.20
2021,04,27,03,21,6.20
2021,04,27,03,22,6.20
2021,04,27,03,23,6.20
2021,04,27,03,24,6.20
2021,04,27,03,25,6.20
2021,04,27,03,26,6.10
2021,04,27,03,27,6.10
2021,04,27,03,28,6.10
2021,04,27,03,29,6.10
2021,04,27,03,30,6.10
2021,04,27,03,31,6.10
2021,04,27,03,32,6.10
2021,04,27,03,33,6.10
2021,04,27,03,34,6.10
2021,04,27,03,35,6.10
2021,04,27,03,36,6.10
2021,04,27,03,37,6.00
2021,04,27,03,38,6.00
2021,04,27,03,39,6.00
2021,04,27,03,40,6.00
2021,04,27,03,41,5.90
2021,04,27,03,42,5.90
2021,04,27,03,43,5.90
2021,04,27,03,44,5.90
2021,04,27,03,45,5.90
2021,04,27,03,46,5.90
2021,04,27,03,47,5.90
2021,04,27,03,48,5.90
2021,04,27,03,49,5.80
2021,04,27,03,50,5.90
2021,04,27,03,51,5.80
2021,04,27,03,52,5.80
2021,04,27,03,53,5.80
2021,04,27,03,54,5.80
2021,04,27,03,55,5.80
2021,04,27,03,56,5.80
2021,04,27,03,57,5.80
2021,04,27,03,58,5.80
2021,04,27,03,59,5.80
2021,04,27,04,00,5.80
2021,04,27,04,01,5.80
2021,04,27,04,02,5.80
2021,04,27,04,03,5.80
2021,04,27,04,04,5.80
2021,04,27,04,05,5.80
2021,04,27,04,06,5.80
2021,04,27,04,07,5.80
2021,04,27,04,08,5.80
2021,04,27,04,09,5.80
2021,04,27,04,10,5.80
2021,04,27,04,11,5.70
2021,04,27,04,12,5.70
2021,04,27,04,13,5.80
2021,04,27,04,14,5.70
2021,04,27,04,15,5.70
2021,04,27,04,16,5.70
2021,04,27,04,17,5.70
2021,04,27,04,18,5.70
2021,04,27,04,19,5.70
2021,04,27,04,20,5.70
2021,04,27,04,21,5.70
2021,04,27,04,22,5.70
2021,04,27,04,23,5.70
2021,04,27,04,24,5.70
2021,04,27,04,25,5.70
2021,04,27,04,26,5.70
2021,04,27,04,27,5.70
2021,04,27,04,28,5.70
2021,04,27,04,29,5.70
2021,04,27,04,30,5.70
2021,04,27,04,31,5.70
2021,04,27,04,32,5.70
2021,04,27,04,33,5.70
2021,04,27,04,34,5.70
2021,04,27,04,35,5.70
2021,04,27,04,36,5.70
2021,04,27,04,37,5.70
2021,04,27,04,38,5.70
2021,04,27,04,39,5.60
2021,04,27,04,40,5.60
2021,04,27,04,41,5.60
2021,04,27,04,42,5.60
2021,04,27,04,43,5.60
2021,04,27,04,44,5.60
2021,04,27,04,45,5.60
2021,04,27,04,46,5.60
2021,04,27,04,47,5.60
2021,04,27,04,48,5.60
2021,04,27,04,49,5.60
2021,04,27,04,50,5.60
2021,04,27,04,51,5.60
2021,04,27,04,52,5.60
2021,04,27,04,53,5.60
2021,04,27,04,54,5.60
2021,04,27,04,55,5.60
2021,04,27,04,56,5.60
2021,04,27,04,57,5.60
2021,04,27,04,58,5.60
2021,04,27,04,59,5.60
2021,04,27,05,00,5.60
2021,04,27,05,01,5.60
2021,04,27,05,02,5.60
2021,04,27,05,03,5.60
2021,04,27,05,04,5.60
2021,04,27,05,05,5.60
2021,04,27,05,06,5.60
2021,04,27,05,07,5.60
2021,04,27,05,08,5.60
2021,04,27,05,09,5.60
2021,04,27,05,10,5.60
2021,04,27,05,11,5.60
2021,04,27,05,12,5.60
2021,04,27,05,13,5.60
2021,04,27,05,14,5.60
2021,04,27,05,15,5.60
2021,04,27,05,16,5.60
2021,04,27,05,17,5.60
2021,04,27,05,18,5.60
2021,04,27,05,19,5.60
2021,04,27,05,20,5.60
2021,04,27,05,21,5.60
2021,04,27,05,22,5.60
2021,04,27,05,23,5.60
2021,04,27,05,24,5.60
2021,04,27,05,25,5.60
2021,04,27,05,26,5.60
2021,04,27,05,27,5.60
2021,04,27,05,28,5.60
2021,04,27,05,29,5.60
2021,04,27,05,30,5.60
2021,04,27,05,31,5.60
2021,04,27,05,32,5.60
2021,04,27,05,33,5.60
2021,04,27,05,34,5.60
2021,04,27,05,35,5.60
2021,04,27,05,36,5.60
2021,04,27,05,37,5.60
2021,04,27,05,38,5.60
2021,04,27,05,39,5.60
2021,04,27,05,40,5.70
2021,04,27,05,41,5.70
2021,04,27,05,42,5.70
2021,04,27,05,43,5.70
2021,04,27,05,44,5.70
2021,04,27,05,45,5.70
2021,04,27,05,46,5.70
2021,04,27,05,47,5.70
2021,04,27,05,48,5.70
2021,04,27,05,49,5.70
2021,04,27,05,50,5.70
2021,04,27,05,51,5.70
2021,04,27,05,52,5.70
2021,04,27,05,53,5.70
2021,04,27,05,54,5.70
2021,04,27,05,55,5.70
2021,04,27,05,56,5.70
2021,04,27,05,57,5.70
2021,04,27,05,58,5.70
2021,04,27,05,59,5.70
2021,04,27,06,00,5.60
2021,04,27,06,01,5.70
2021,04,27,06,02,5.70
2021,04,27,06,03,5.70
2021,04,27,06,04,5.70
2021,04,27,06,05,5.70
2021,04,27,06,06,5.70
2021,04,27,06,07,5.70
2021,04,27,06,08,5.70
2021,04,27,06,09,5.70
2021,04,27,06,10,5.70
2021,04,27,06,11,5.70
2021,04,27,06,12,5.70
2021,04,27,06,13,5.70
2021,04,27,06,14,5.70
2021,04,27,06,15,5.70
2021,04,27,06,16,5.70
2021,04,27,06,17,5.70
2021,04,27,06,18,5.70
2021,04,27,06,19,5.70
2021,04,27,06,20,5.70
2021,04,27,06,21,5.70
2021,04,27,06,22,5.80
2021,04,27,06,23,5.80
2021,04,27,06,24,5.80
2021,04,27,06,25,5.80
2021,04,27,06,26,5.90
2021,04,27,06,27,5.90
2021,04,27,06,28,5.90
2021,04,27,06,29,6.00
2021,04,27,06,30,6.00
2021,04,27,06,31,6.00
2021,04,27,06,32,6.00
2021,04,27,06,33,6.10
2021,04,27,06,34,6.10
2021,04,27,06,35,6.10
2021,04,27,06,36,6.10
2021,04,27,06,37,6.10
2021,04,27,06,38,6.10
2021,04,27,06,39,6.10
2021,04,27,06,40,6.10
2021,04,27,06,41,6.10
2021,04,27,06,42,6.10
2021,04,27,06,43,6.10
2021,04,27,06,44,6.10
2021,04,27,06,45,6.20
2021,04,27,06,46,6.20
2021,04,27,06,47,6.20
2021,04,27,06,48,6.20
2021,04,27,06,49,6.20
2021,04,27,06,50,6.20
2021,04,27,06,51,6.20
2021,04,27,06,52,6.20
2021,04,27,06,53,6.20
2021,04,27,06,54,6.20
2021,04,27,06,55,6.20
2021,04,27,06,56,6.20
2021,04,27,06,57,6.20
2021,04,27,06,58,6.30
2021,04,27,06,59,6.30
2021,04,27,07,00,6.30
2021,04,27,07,01,6.30
2021,04,27,07,02,6.30
2021,04,27,07,03,6.30
2021,04,27,07,04,6.30
2021,04,27,07,05,6.30
2021,04,27,07,06,6.30
2021,04,27,07,07,6.30
2021,04,27,07,08,6.40
2021,04,27,07,09,6.40
2021,04,27,07,10,6.40
2021,04,27,07,11,6.40
2021,04,27,07,12,6.40
2021,04,27,07,13,6.40
2021,04,27,07,14,6.50
2021,04,27,07,15,6.50
2021,04,27,07,16,6.50
2021,04,27,07,17,6.50
2021,04,27,07,18,6.60
2021,04,27,07,19,6.60
2021,04,27,07,20,6.60
2021,04,27,07,21,6.60
2021,04,27,07,22,6.60
2021,04,27,07,23,6.70
2021,04,27,07,24,6.70
2021,04,27,07,25,6.70
2021,04,27,07,26,6.70
2021,04,27,07,27,6.70
2021,04,27,07,28,6.70
2021,04,27,07,29,6.70
2021,04,27,07,30,6.70
2021,04,27,07,31,6.80
2021,04,27,07,32,6.80
2021,04,27,07,33,6.80
2021,04,27,07,34,6.80
2021,04,27,07,35,6.80
2021,04,27,07,36,6.80
2021,04,27,07,37,6.90
2021,04,27,07,38,6.90
2021,04,27,07,39,6.90
2021,04,27,07,40,6.90
2021,04,27,07,41,6.90
2021,04,27,07,42,7.00
2021,04,27,07,43,7.00
2021,04,27,07,44,7.00
2021,04,27,07,45,7.00
2021,04,27,07,46,7.10
2021,04,27,07,47,7.10
2021,04,27,07,48,7.10
2021,04,27,07,49,7.10
2021,04,27,07,50,7.20
2021,04,27,07,51,7.20
2021,04,27,07,52,7.20
2021,04,27,07,53,7.20
2021,04,27,07,54,7.20
2021,04,27,07,55,7.30
2021,04,27,07,56,7.30
2021,04,27,07,57,7.30
2021,04,27,07,58,7.30
2021,04,27,07,59,7.30
2021,04,27,08,00,7.40
2021,04,27,08,01,7.40
2021,04,27,08,02,7.40
2021,04,27,08,03,7.50
2021,04,27,08,04,7.50
2021,04,27,08,05,7.50
2021,04,27,08,06,7.60
2021,04,27,08,07,7.60
2021,04,27,08,08,7.60
2021,04,27,08,09,7.70
2021,04,27,08,10,7.70
2021,04,27,08,11,7.70
2021,04,27,08,12,7.70
2021,04,27,08,13,7.80
2021,04,27,08,14,7.80
2021,04,27,08,15,7.80
2021,04,27,08,16,7.80
2021,04,27,08,17,7.90
2021,04,27,08,18,7.90
2021,04,27,08,19,7.90
2021,04,27,08,20,8.00
2021,04,27,08,21,8.10
2021,04,27,08,22,8.10
2021,04,27,08,23,8.20
2021,04,27,08,24,8.20
2021,04,27,08,25,8.30
2021,04,27,08,26,8.40
2021,04,27,08,27,8.40
2021,04,27,08,28,8.50
2021,04,27,08,29,8.60
2021,04,27,08,30,8.60
2021,04,27,08,31,8.70
2021,04,27,08,32,8.80
2021,04,27,08,33,8.80
2021,04,27,08,34,8.90
2021,04,27,08,35,9.00
2021,04,27,08,36,9.00
2021,04,27,08,37,9.10
2021,04,27,08,38,9.20
2021,04,27,08,39,9.30
2021,04,27,08,40,9.50
2021,04,27,08,41,9.60
2021,04,27,08,42,9.70
2021,04,27,08,43,9.90
2021,04,27,08,44,10.00
2021,04,27,08,45,10.10
2021,04,27,08,46,10.20
2021,04,27,08,47,10.30
2021,04,27,08,48,10.40
2021,04,27,08,49,10.50
2021,04,27,08,50,10.60
2021,04,27,08,51,10.70
2021,04,27,08,52,10.80
2021,04,27,08,53,10.90
2021,04,27,08,54,11.00
2021,04,27,08,55,11.10
2021,04,27,08,56,11.20
2021,04,27,08,57,11.30
2021,04,27,08,58,11.30
2021,04,27,08,59,11.40
2021,04,27,09,00,11.50
2021,04,27,09,01,11.60
2021,04,27,09,02,11.70
2021,04,27,09,03,11.70
2021,04,27,09,04,11.80
2021,04,27,09,05,11.80
2021,04,27,09,06,11.90
2021,04,27,09,07,11.90
2021,04,27,09,08,11.90
2021,04,27,09,09,11.90
2021,04,27,09,10,12.00
2021,04,27,09,11,12.00
2021,04,27,09,12,12.00
2021,04,27,09,13,12.10
2021,04,27,09,14,12.10
2021,04,27,09,15,12.10
2021,04,27,09,16,12.20
2021,04,27,09,17,12.20
2021,04,27,09,18,12.20
2021,04,27,09,19,12.20
2021,04,27,09,20,12.20
2021,04,27,09,21,12.20
2021,04,27,09,22,12.20
2021,04,27,09,23,12.20
2021,04,27,09,24,12.20
2021,04,27,09,25,12.20
2021,04,27,09,26,12.20
2021,04,27,09,27,12.20
2021,04,27,09,28,12.20
2021,04,27,09,29,12.10
2021,04,27,09,30,12.10
2021,04,27,09,31,12.10
2021,04,27,09,32,12.10
2021,04,27,09,33,12.10
2021,04,27,09,34,12.10
2021,04,27,09,35,12.10
2021,04,27,09,36,12.10
2021,04,27,09,37,12.10
2021,04,27,09,38,12.10
2021,04,27,09,39,12.10
2021,04,27,09,40,12.10
2021,04,27,09,41,12.10
2021,04,27,09,42,12.10
2021,04,27,09,43,12.10
2021,04,27,09,44,12.10
2021,04,27,09,45,12.10
2021,04,27,09,46,12.10
2021,04,27,09,47,12.10
2021,04,27,09,48,12.10
2021,04,27,09,49,12.10
2021,04,27,09,50,12.10
2021,04,27,09,51,12.10
2021,04,27,09,52,12.10
2021,04,27,09,53,12.10
2021,04,27,09,54,12.10
2021,04,27,09,55,12.10
2021,04,27,09,56,12.10
2021,04,27,09,57,12.10
2021,04,27,09,58,12.10
2021,04,27,09,59,12.10
2021,04,27,10,00,12.10
2021,04,27,10,01,12.10
2021,04,27,10,02,12.10
2021,04,27,10,03,12.10
2021,04,27,10,04,12.10
2021,04,27,10,05,12.10
2021,04,27,10,06,12.10
2021,04,27,10,07,12.10
2021,04,27,10,08,12.10
2021,04,27,10,09,12.10
2021,04,27,10,10,12.10
2021,04,27,10,11,12.10
2021,04,27,10,12,12.10
2021,04,27,10,13,12.10
2021,04,27,10,14,12.10
2021,04,27,10,15,12.10
2021,04,27,10,16,12.20
2021,04,27,10,17,12.20
2021,04,27,10,18,12.20
2021,04,27,10,19,12.20
2021,04,27,10,20,12.20
2021,04,27,10,21,12.30
2021,04,27,10,22,12.30
2021,04,27,10,23,12.30
2021,04,27,10,24,12.30
2021,04,27,10,25,12.30
2021,04,27,10,26,12.30
2021,04,27,10,27,12.30
2021,04,27,10,28,12.30
2021,04,27,10,29,12.30
2021,04,27,10,30,12.40
2021,04,27,10,31,12.40
2021,04,27,10,32,12.40
2021,04,27,10,33,12.40
2021,04,27,10,34,12.40
2021,04,27,10,35,12.40
2021,04,27,10,36,12.40
2021,04,27,10,37,12.40
2021,04,27,10,38,12.30
2021,04,27,10,39,12.30
2021,04,27,10,40,12.30
2021,04,27,10,41,12.30
2021,04,27,10,42,12.30
2021,04,27,10,43,12.40
2021,04,27,10,44,12.40
2021,04,27,10,45,12.40
2021,04,27,10,46,12.40
2021,04,27,10,47,12.40
2021,04,27,10,48,12.40
2021,04,27,10,49,12.40
2021,04,27,10,50,12.40
2021,04,27,10,51,12.40
2021,04,27,10,52,12.40
2021,04,27,10,53,12.40
2021,04,27,10,54,12.50
2021,04,27,10,55,12.40
2021,04,27,10,56,12.40
2021,04,27,10,57,12.40
2021,04,27,10,58,12.40
2021,04,27,10,59,12.40
2021,04,27,11,00,12.40
2021,04,27,11,01,12.40
2021,04,27,11,02,12.40
2021,04,27,11,03,12.40
2021,04,27,11,04,12.30
2021,04,27,11,05,12.30
2021,04,27,11,06,12.30
2021,04,27,11,07,12.30
2021,04,27,11,08,12.30
2021,04,27,11,09,12.30
2021,04,27,11,10,12.40
2021,04,27,11,11,12.40
2021,04,27,11,12,12.40
2021,04,27,11,13,12.50
2021,04,27,11,14,12.50
2021,04,27,11,15,12.60
2021,04,27,11,16,12.60
2021,04,27,11,17,12.60
2021,04,27,11,18,12.70
2021,04,27,11,19,12.70
2021,04,27,11,20,12.70
2021,04,27,11,21,12.80
2021,04,27,11,22,12.80
2021,04,27,11,23,12.90
2021,04,27,11,24,12.90
2021,04,27,11,25,12.90
2021,04,27,11,26,13.00
2021,04,27,11,27,13.00
2021,04,27,11,28,13.10
2021,04,27,11,29,13.10
2021,04,27,11,30,13.20
2021,04,27,11,31,13.20
2021,04,27,11,32,13.30
2021,04,27,11,33,13.30
2021,04,27,11,34,13.40
2021,04,27,11,35,13.40
2021,04,27,11,36,13.50
2021,04,27,11,37,13.50
2021,04,27,11,38,13.60
2021,04,27,11,39,13.60
2021,04,27,11,40,13.60
2021,04,27,11,41,13.60
2021,04,27,11,42,13.60
2021,04,27,11,43,13.60
2021,04,27,11,44,13.60
2021,04,27,11,45,13.50
2021,04,27,11,46,13.50
2021,04,27,11,47,13.50
2021,04,27,11,48,13.50
2021,04,27,11,49,13.60
2021,04,27,11,50,13.60
2021,04,27,11,51,13.50
2021,04,27,11,52,13.50
2021,04,27,11,53,13.50
2021,04,27,11,54,13.50
2021,04,27,11,55,13.50
2021,04,27,11,56,13.50
2021,04,27,11,57,13.50
2021,04,27,11,58,13.60
2021,04,27,11,59,13.60
2021,04,27,12,00,13.60
2021,04,27,12,01,13.70
2021,04,27,12,02,13.80
2021,04,27,12,03,13.80
2021,04,27,12,04,13.80
2021,04,27,12,05,13.80
2021,04,27,12,06,13.80
2021,04,27,12,07,13.80
2021,04,27,12,08,13.90
2021,04,27,12,09,13.90
2021,04,27,12,10,13.90
2021,04,27,12,11,13.90
2021,04,27,12,12,13.90
2021,04,27,12,13,13.80
2021,04,27,12,14,13.80
2021,04,27,12,15,13.80
2021,04,27,12,16,13.80
2021,04,27,12,17,13.80
2021,04,27,12,18,13.80
2021,04,27,12,19,13.90
2021,04,27,12,20,13.90
2021,04,27,12,21,14.00
2021,04,27,12,22,14.00
2021,04,27,12,23,14.10
2021,04,27,12,24,14.10
2021,04,27,12,25,14.20
2021,04,27,12,26,14.20
2021,04,27,12,27,14.20
2021,04,27,12,28,14.30
2021,04,27,12,29,14.30
2021,04,27,12,30,14.30
2021,04,27,12,31,14.40
2021,04,27,12,32,14.40
2021,04,27,12,33,14.50
2021,04,27,12,34,14.50
2021,04,27,12,35,14.50
2021,04,27,12,36,14.60
2021,04,27,12,37,14.60
2021,04,27,12,38,14.60
2021,04,27,12,39,14.70
2021,04,27,12,40,14.70
2021,04,27,12,41,14.70
2021,04,27,12,42,14.70
2021,04,27,12,43,14.70
2021,04,27,12,44,14.80
2021,04,27,12,45,14.80
2021,04,27,12,46,14.80
2021,04,27,12,47,14.80
2021,04,27,12,48,14.80
2021,04,27,12,49,14.90
2021,04,27,12,50,14.90
2021,04,27,12,51,14.80
2021,04,27,12,52,14.80
2021,04,27,12,53,14.80
2021,04,27,12,54,14.80
2021,04,27,12,55,14.80
2021,04,27,12,56,14.80
2021,04,27,12,57,14.80
2021,04,27,12,58,14.80
2021,04,27,12,59,14.80
2021,04,27,13,00,14.80
2021,04,27,13,01,14.80
2021,04,27,13,02,14.80
2021,04,27,13,03,14.80
2021,04,27,13,04,14.80
2021,04,27,13,05,14.80
2021,04,27,13,06,14.80
2021,04,27,13,07,14.80
2021,04,27,13,08,14.80
2021,04,27,13,09,14.80
2021,04,27,13,10,14.80
2021,04,27,13,11,14.70
2021,04,27,13,12,14.70
2021,04,27,13,13,14.70
2021,04,27,13,14,14.70
2021,04,27,13,15,14.70
2021,04,27,13,16,14.60
2021,04,27,13,17,14.60
2021,04,27,13,18,14.60
2021,04,27,13,19,14.60
2021,04,27,13,20,14.60
2021,04,27,13,21,14.60
2021,04,27,13,22,14.60
2021,04,27,13,23,14.60
2021,04,27,13,24,14.60
2021,04,27,13,25,14.60
2021,04,27,13,26,14.60
2021,04,27,13,27,14.50
2021,04,27,13,28,14.50
2021,04,27,13,29,14.50
2021,04,27,13,30,14.50
2021,04,27,13,31,14.40
2021,04,27,13,32,14.40
2021,04,27,13,33,14.40
2021,04,27,13,34,14.40
2021,04,27,13,35,14.30
2021,04,27,13,36,14.30
2021,04,27,13,37,14.30
2021,04,27,13,38,14.30
2021,04,27,13,39,14.30
2021,04,27,13,40,14.30
2021,04,27,13,41,14.30
2021,04,27,13,42,14.40
2021,04,27,13,43,14.40
2021,04,27,13,44,14.40
2021,04,27,13,45,14.40
2021,04,27,13,46,14.40
2021,04,27,13,47,14.40
2021,04,27,13,48,14.40
2021,04,27,13,49,14.40
2021,04,27,13,50,14.40
2021,04,27,13,51,14.50
2021,04,27,13,52,14.50
2021,04,27,13,53,14.50
2021,04,27,13,54,14.50
2021,04,27,13,55,14.50
2021,04,27,13,56,14.50
2021,04,27,13,57,14.50
2021,04,27,13,58,14.50
2021,04,27,13,59,14.40
2021,04,27,14,00,14.40
2021,04,27,14,01,14.40
2021,04,27,14,02,14.40
2021,04,27,14,03,14.40
2021,04,27,14,04,14.40
2021,04,27,14,05,14.40
2021,04,27,14,06,14.40
2021,04,27,14,07,14.40
2021,04,27,14,08,14.40
2021,04,27,14,09,14.30
2021,04,27,14,10,14.30
2021,04,27,14,11,14.30
2021,04,27,14,12,14.30
2021,04,27,14,13,14.20
2021,04,27,14,14,14.20
2021,04,27,14,15,14.20
2021,04,27,14,16,14.10
2021,04,27,14,17,14.10
2021,04,27,14,18,14.00
2021,04,27,14,19,14.00
2021,04,27,14,20,13.90
2021,04,27,14,21,13.90
2021,04,27,14,22,13.90
2021,04,27,14,23,13.90
2021,04,27,14,24,13.80
2021,04,27,14,25,13.80
2021,04,27,14,26,13.80
2021,04,27,14,27,13.80
2021,04,27,14,28,13.80
2021,04,27,14,29,13.80
2021,04,27,14,30,13.80
2021,04,27,14,31,13.80
2021,04,27,14,32,13.80
2021,04,27,14,33,13.80
2021,04,27,14,34,13.90
2021,04,27,14,35,13.90
2021,04,27,14,36,13.90
2021,04,27,14,37,14.00
2021,04,27,14,38,14.00
2021,04,27,14,39,14.00
2021,04,27,14,40,14.00
2021,04,27,14,41,14.00
2021,04,27,14,42,14.10
2021,04,27,14,43,14.00
2021,04,27,14,44,14.00
2021,04,27,14,45,14.00
2021,04,27,14,46,13.90
2021,04,27,14,47,13.90
2021,04,27,14,48,13.90
2021,04,27,14,49,13.80
2021,04,27,14,50,13.80
2021,04,27,14,51,13.80
2021,04,27,14,52,13.80
2021,04,27,14,53,13.80
2021,04,27,14,54,13.80
2021,04,27,14,55,13.90
2021,04,27,14,56,13.90
2021,04,27,14,57,13.90
2021,04,27,14,58,13.90
2021,04,27,14,59,14.00
2021,04,27,15,00,14.00
2021,04,27,15,01,14.00
2021,04,27,15,02,14.00
2021,04,27,15,03,14.10
2021,04,27,15,04,14.00
2021,04,27,15,05,14.00
2021,04,27,15,06,14.00
2021,04,27,15,07,14.00
2021,04,27,15,08,13.90
2021,04,27,15,09,13.90
2021,04,27,15,10,13.90
2021,04,27,15,11,13.90
2021,04,27,15,12,13.90
2021,04,27,15,13,13.80
2021,04,27,15,14,13.80
2021,04,27,15,15,13.80
2021,04,27,15,16,13.80
2021,04,27,15,17,13.80
2021,04,27,15,18,13.80
2021,04,27,15,19,13.80
2021,04,27,15,20,13.80
2021,04,27,15,21,13.90
2021,04,27,15,22,13.90
2021,04,27,15,23,13.90
2021,04,27,15,24,13.90
2021,04,27,15,25,13.90
2021,04,27,15,26,13.90
2021,04,27,15,27,13.90
2021,04,27,15,28,13.90
2021,04,27,15,29,13.90
2021,04,27,15,30,13.90
2021,04,27,15,31,13.90
2021,04,27,15,32,13.90
2021,04,27,15,33,13.90
2021,04,27,15,34,13.80
2021,04,27,15,35,13.90
2021,04,27,15,36,13.90
2021,04,27,15,37,13.90
2021,04,27,15,38,13.90
2021,04,27,15,39,13.90
2021,04,27,15,40,13.90
2021,04,27,15,41,13.90
2021,04,27,15,42,14.00
2021,04,27,15,43,14.00
2021,04,27,15,44,14.00
2021,04,27,15,45,14.00
2021,04,27,15,46,14.00
2021,04,27,15,47,14.00
2021,04,27,15,48,14.10
2021,04,27,15,49,14.10
2021,04,27,15,50,14.10
2021,04,27,15,51,14.10
2021,04,27,15,52,14.10
2021,04,27,15,53,14.10
2021,04,27,15,54,14.10
2021,04,27,15,55,14.10
2021,04,27,15,56,14.10
2021,04,27,15,57,14.10
2021,04,27,15,58,14.10
2021,04,27,15,59,14.10
2021,04,27,16,00,14.10
2021,04,27,16,01,14.10
2021,04,27,16,02,14.10
2021,04,27,16,03,14.10
2021,04,27,16,04,14.10
2021,04,27,16,05,14.10
2021,04,27,16,06,14.00
2021,04,27,16,07,14.00
2021,04,27,16,08,14.00
2021,04,27,16,09,13.90
2021,04,27,16,10,13.90
2021,04,27,16,11,13.90
2021,04,27,16,12,13.90
2021,04,27,16,13,13.90
2021,04,27,16,14,13.90
2021,04,27,16,15,13.90
2021,04,27,16,16,13.90
2021,04,27,16,17,13.80
2021,04,27,16,18,13.80
2021,04,27,16,19,13.80
2021,04,27,16,20,13.80
2021,04,27,16,21,13.80
2021,04,27,16,22,13.80
2021,04,27,16,23,13.80
2021,04,27,16,24,13.80
2021,04,27,16,25,13.80
2021,04,27,16,26,13.80
2021,04,27,16,27,13.80
2021,04,27,16,28,13.90
2021,04,27,16,29,13.80
2021,04,27,16,30,13.90
2021,04,27,16,31,13.90
2021,04,27,16,32,13.90
2021,04,27,16,33,13.90
2021,04,27,16,34,13.90
2021,04,27,16,35,13.90
2021,04,27,16,36,13.90
2021,04,27,16,37,13.90
2021,04,27,16,38,14.00
2021,04,27,16,39,14.00
2021,04,27,16,40,14.00
2021,04,27,16,41,14.00
2021,04,27,16,42,14.00
2021,04,27,16,43,14.00
2021,04,27,16,44,14.00
2021,04,27,16,45,14.00
2021,04,27,16,46,14.00
2021,04,27,16,47,14.00
2021,04,27,16,48,14.00
2021,04,27,16,49,14.10
2021,04,27,16,50,14.10
2021,04,27,16,51,14.10
2021,04,27,16,52,14.10
2021,04,27,16,53,14.20
2021,04,27,16,54,14.20
2021,04,27,16,55,14.20
2021,04,27,16,56,14.30
2021,04,27,16,57,14.30
2021,04,27,16,58,14.30
2021,04,27,16,59,14.30
2021,04,27,17,00,14.30
2021,04,27,17,01,14.30
2021,04,27,17,02,14.30
2021,04,27,17,03,14.30
2021,04,27,17,04,14.30
2021,04,27,17,05,14.30
2021,04,27,17,06,14.40
2021,04,27,17,07,14.40
2021,04,27,17,08,14.40
2021,04,27,17,09,14.40
2021,04,27,17,10,14.40
2021,04,27,17,11,14.40
2021,04,27,17,12,14.40
2021,04,27,17,13,14.40
2021,04,27,17,14,14.40
2021,04,27,17,15,14.40
2021,04,27,17,16,14.40
2021,04,27,17,17,14.40
2021,04,27,17,18,14.40
2021,04,27,17,19,14.40
2021,04,27,17,20,14.40
2021,04,27,17,21,14.40
2021,04,27,17,22,14.40
2021,04,27,17,23,14.40
2021,04,27,17,24,14.40
2021,04,27,17,25,14.40
2021,04,27,17,26,14.40
2021,04,27,17,27,14.40
2021,04,27,17,28,14.40
2021,04,27,17,29,14.40
2021,04,27,17,30,14.40
2021,04,27,17,31,14.40
2021,04,27,17,32,14.40
2021,04,27,17,33,14.50
2021,04,27,17,34,14.40
2021,04,27,17,35,14.40
2021,04,27,17,36,14.40
2021,04,27,17,37,14.40
2021,04,27,17,38,14.40
2021,04,27,17,39,14.40
2021,04,27,17,40,14.40
2021,04,27,17,41,14.40
2021,04,27,17,42,14.40